Regional Weather Roundup
Issued by NWS

Home | Current Version | Previous Version | Text Only | Print | Product List | Glossary Off
Versions: 1 2 3 4 5 6 7 8 9 10 11 12 13 14 15 16 17 18 19 20 21 22 23 24 25 26 27 28 29 30 31 32 33 34 35 36 37 38 39 40 41 42 43 44 45 46 47 48 49 50

000
ASUS43 KIND 220009
RWRIN

WEATHER ROUNDUP FOR INDIANA
NATIONAL WEATHER SERVICE INDIANAPOLIS IN
800 PM EDT THU SEP 21 2017

NOTE: "FAIR" INDICATES FEW OR NO CLOUDS BELOW 12,000 FEET WITH NO
SIGNIFICANT WEATHER AND/OR OBSTRUCTIONS TO VISIBILITY.

* - STATION DOES NOT REPORT WEATHER SUCH AS PRECIPITATION OR FOG.

+ - STATION NOT QUALITY CONTROLLED BY THE NATIONAL WEATHER SERVICE.
    USE DATA WITH CAUTION...ESPECIALLY DEWPOINT AND RELATIVE
    HUMIDITY OBSERVATIONS.

INZ001>003-010>013-019-020-220100-
NORTHWEST INDIANA

CITY           SKY/WX    TMP DP  RH WIND       PRES   REMARKS
GARY /AIRPORT/ PTCLDY    91  66  43 S6        29.98S
KNOX *+        CLEAR     81  72  74 S5        30.02R
LA PORTE +     CLEAR     80  72  75 SE3       30.03R
6HR MIN TEMP:  80; 6HR MAX TEMP:  91;

MICHIGAN CITY+ CLEAR     77  75  94 CALM      30.02R
MONTICELLO +   CLEAR     79  71  76 CALM      30.01R
6HR MIN TEMP:  79; 6HR MAX TEMP:  90;

RENSSELAER +   CLEAR     81  63  54 CALM      30.01R
VALPARAISO     CLEAR     86  71  60 CALM      30.02R
6HR MIN TEMP:  86; 6HR MAX TEMP:  94;


$$

LMZ046-743>745-220100-
SOUTHERN LAKE MICHIGAN

STATION/POSITION TIME  TEMP    WIND        PRES    WAVE
                       AIR SEA DIR/SP/G            HT
                 (UTC) (F)     (DEG/KT/KT) (MB)    (FT)
BURNS HARBOR     2340   75      80/  6/  8 1016.3R
MICHIGAN CITY    2340   80      80/  3/  3   N/A
5NW MICH CITY    2350   74 71   90/  6/  8   N/A     1

$$

INZ004-005-014>016-021>024-220100-
NORTH CENTRAL INDIANA

CITY           SKY/WX    TMP DP  RH WIND       PRES   REMARKS
ELKHART        CLEAR     82  72  69 CALM      30.03R
GOSHEN         CLEAR     81  70  69 SE6       30.04R
6HR MIN TEMP:  80; 6HR MAX TEMP:  92;

LOGANSPORT +   CLEAR     79  68  69 CALM      30.04R
PERU/GRISSOM   CLEAR     83  71  67 SE3       30.03R
6HR MIN TEMP:  83; 6HR MAX TEMP:  91;

ROCHESTER +    CLEAR     82  73  74 CALM      30.04
SOUTH BEND     CLEAR     84  72  67 S5        30.04R
6HR MIN TEMP:  84; 6HR MAX TEMP:  90; 6HR PCP: TRACE;

WARSAW +       CLEAR     79  72  78 CALM      30.04S

$$

INZ006>009-017-018-025>027-220100-
NORTHEAST INDIANA

CITY           SKY/WX    TMP DP  RH WIND       PRES   REMARKS
AUBURN +       CLEAR     79  70  73 CALM      30.06R
FORT WAYNE     PTCLDY    82  68  62 CALM      30.05R
6HR MIN TEMP:  81; 6HR MAX TEMP:  91;

HUNTINGTON +   CLEAR     78  72  82 CALM      30.04R
6HR MIN TEMP:  78; 6HR MAX TEMP:  91;

KENDALLVILLE + PTCLDY    78  74  87 CALM      30.07R

$$

INZ028-029-035-036-043>045-051>053-220100-
WEST CENTRAL INDIANA

CITY           SKY/WX    TMP DP  RH WIND       PRES   REMARKS
GREENCASTLE +  CLEAR     79  66  65 CALM      30.03S
LAFAYETTE      CLEAR     78  72  81 CALM      30.00R
6HR MIN TEMP:  78; 6HR MAX TEMP:  91;

TERRE HAUTE    CLEAR     82  66  58 CALM      30.00S
6HR MIN TEMP:  82; 6HR MAX TEMP:  94;


$$

INZ030>032-037>040-046>048-054>057-064-065-220100-
CENTRAL INDIANA

CITY           SKY/WX    TMP DP  RH WIND       PRES   REMARKS
CP ATTERBURY + CLEAR     77  72  83 CALM      30.04R
COLUMBUS       CLEAR     82  63  51 CALM      30.03R
FRANKFORT +    MOCLDY    80  70  71 CALM      30.05R
6HR MIN TEMP:  80; 6HR MAX TEMP:  94;

GREENWOOD *+   CLEAR     89  73  59 S5        30.04R HX  97
INDIANAPOLIS   PTCLDY    84  66  54 S5        30.03R
6HR MIN TEMP:  84; 6HR MAX TEMP:  92;

-EAGLE CREEK   CLEAR     84  67  56 CALM      30.02S
6HR MIN TEMP:  84; 6HR MAX TEMP:  92;

KOKOMO +       CLEAR     80  72  76 SE5       30.05R
6HR MIN TEMP:  80; 6HR MAX TEMP:  91;

MT COMFORT *+  CLEAR     82  68  61 SW3       30.04S
SHELBYVILLE    CLEAR     81  67  62 SW5       30.02S
6HR MIN TEMP:  81; 6HR MAX TEMP:  92;

ZIONSVILLE +   CLEAR     77  70  80 CALM      30.05R
6HR MIN TEMP:  77; 6HR MAX TEMP:  88;


$$

INZ033-034-041-042-049-050-058-059-220100-
EAST CENTRAL INDIANA

CITY           SKY/WX    TMP DP  RH WIND       PRES   REMARKS
MUNCIE         CLEAR     78  72  81 CALM      30.05R
6HR MIN TEMP:  78; 6HR MAX TEMP:  93;

RICHMOND +     CLOUDY    79  68  69 CALM      30.07R

$$

INZ060-061-067>069-081>083-085>088-220100-
SOUTHWEST INDIANA

CITY           SKY/WX    TMP DP  RH WIND       PRES   REMARKS
EVANSVILLE     CLEAR     83  70  64 CALM      30.00R
6HR MIN TEMP:  83; 6HR MAX TEMP:  92;

HUNTINGBURG +  CLEAR     82  73  74 CALM      30.02R
WASHINGTON +   CLEAR     79  67  65 S3        30.00S
6HR MIN TEMP:  79; 6HR MAX TEMP:  93;


$$

INZ062-063-066-070>080-084-089>092-220100-
SOUTH CENTRAL AND SOUTHEAST INDIANA

CITY           SKY/WX    TMP DP  RH WIND       PRES   REMARKS
BEDFORD +      CLEAR     81  70  69 CALM      30.02R
BLOOMINGTON    CLEAR     80  68  66 CALM      30.03S
6HR MIN TEMP:  80; 6HR MAX TEMP:  92;

MADISON *+     CLEAR     77  70  78 CALM      30.06R
NORTH VERNON + CLEAR     75  72  88 CALM      30.05R
SEYMOUR +      CLEAR     79  68  69 CALM      30.02S

$$





USA.gov is the U.S. government's official web portal to all federal, state and local government web resources and services.